GFSNW_prec_pwat_024.txt.gz
Precipitable_Water
0.77 0.73 0.69 0.66 0.64 0.67 0.64 0.52 0.27 0.72 0.71 0.28 0.33 0.27 0.51 0.44 0.40 0.40 0.38 0.40 0.40 0.37 0.36 0.35 0.35 0.35 0.36 0.43 0.39 0.27 0.37 0.29 0.22 0.26 0.27 0.30 0.29 0.25 0.23 0.15 0.17 0.23 0.21 0.21
0.78 0.73 0.71 0.66 0.65 0.66 0.57 0.38 0.52 0.80 0.62 0.20 0.24 0.31 0.42 0.41 0.36 0.35 0.33 0.38 0.42 0.44 0.39 0.35 0.41 0.42 0.49 0.42 0.39 0.28 0.32 0.24 0.18 0.21 0.29 0.30 0.25 0.29 0.27 0.25 0.25 0.19 0.17 0.19
0.78 0.75 0.73 0.68 0.65 0.66 0.66 0.48 0.39 0.54 0.47 0.44 0.27 0.38 0.36 0.36 0.39 0.35 0.35 0.41 0.46 0.41 0.39 0.42 0.39 0.39 0.42 0.37 0.37 0.34 0.36 0.25 0.19 0.13 0.17 0.20 0.18 0.21 0.25 0.23 0.18 0.19 0.21 0.24
0.79 0.75 0.75 0.71 0.64 0.65 0.64 0.60 0.45 0.47 0.24 0.26 0.35 0.43 0.41 0.34 0.29 0.38 0.39 0.36 0.39 0.38 0.34 0.37 0.36 0.40 0.38 0.38 0.30 0.27 0.29 0.17 0.22 0.23 0.22 0.21 0.20 0.19 0.20 0.19 0.21 0.19 0.22 0.25
0.78 0.77 0.78 0.73 0.65 0.65 0.63 0.59 0.54 0.49 0.34 0.37 0.36 0.45 0.38 0.33 0.33 0.36 0.34 0.32 0.38 0.41 0.35 0.35 0.33 0.36 0.32 0.28 0.28 0.24 0.28 0.18 0.20 0.15 0.20 0.20 0.18 0.18 0.22 0.24 0.23 0.25 0.28 0.29
0.79 0.77 0.78 0.73 0.66 0.69 0.70 0.81 0.80 0.47 0.40 0.38 0.38 0.37 0.39 0.38 0.42 0.41 0.42 0.41 0.42 0.42 0.44 0.48 0.52 0.49 0.46 0.38 0.29 0.24 0.22 0.18 0.15 0.10 0.20 0.20 0.13 0.19 0.23 0.24 0.27 0.26 0.23 0.31
0.79 0.78 0.79 0.76 0.71 0.78 0.97 0.88 0.79 0.52 0.36 0.39 0.37 0.46 0.46 0.44 0.44 0.39 0.46 0.47 0.43 0.54 0.62 0.55 0.51 0.49 0.47 0.43 0.37 0.35 0.25 0.22 0.19 0.13 0.17 0.09 0.20 0.28 0.27 0.25 0.27 0.31 0.34 0.39
0.79 0.79 0.80 0.77 0.80 0.93 0.98 0.95 0.80 0.55 0.40 0.44 0.42 0.46 0.49 0.49 0.51 0.46 0.46 0.49 0.56 0.63 0.53 0.39 0.32 0.31 0.34 0.35 0.38 0.36 0.34 0.24 0.16 0.13 0.13 0.16 0.20 0.26 0.24 0.23 0.24 0.36 0.37 0.42
0.79 0.80 0.81 0.79 0.83 0.92 0.83 0.88 0.92 0.61 0.42 0.43 0.56 0.46 0.49 0.43 0.42 0.45 0.48 0.59 0.66 0.60 0.48 0.37 0.24 0.19 0.19 0.20 0.25 0.38 0.36 0.31 0.18 0.18 0.11 0.09 0.18 0.31 0.36 0.33 0.18 0.39 0.40 0.41
0.77 0.80 0.82 0.82 0.85 0.84 0.74 0.75 0.87 0.64 0.46 0.56 0.59 0.48 0.47 0.54 0.48 0.42 0.49 0.51 0.52 0.58 0.39 0.31 0.24 0.22 0.29 0.18 0.18 0.19 0.24 0.26 0.19 0.18 0.15 0.16 0.25 0.35 0.38 0.19 0.19 0.38 0.43 0.46
0.75 0.74 0.79 0.84 0.87 0.86 0.77 0.74 0.87 0.66 0.53 0.60 0.67 0.66 0.55 0.54 0.49 0.39 0.50 0.47 0.49 0.44 0.33 0.28 0.27 0.23 0.26 0.24 0.26 0.22 0.19 0.18 0.18 0.22 0.17 0.12 0.31 0.35 0.25 0.30 0.41 0.44 0.47 0.51
0.78 0.73 0.71 0.74 0.80 0.86 0.79 0.62 0.81 0.79 0.57 0.60 0.79 0.80 0.80 0.73 0.67 0.56 0.56 0.44 0.44 0.45 0.35 0.34 0.32 0.24 0.29 0.24 0.17 0.32 0.20 0.21 0.19 0.21 0.19 0.30 0.37 0.36 0.43 0.47 0.47 0.48 0.50 0.55
0.80 0.76 0.71 0.70 0.76 0.82 0.77 0.69 0.74 0.63 0.49 0.53 0.63 0.66 0.81 0.89 0.85 0.82 0.53 0.59 0.61 0.53 0.51 0.39 0.34 0.22 0.30 0.20 0.22 0.26 0.29 0.35 0.27 0.29 0.30 0.34 0.41 0.48 0.53 0.56 0.53 0.56 0.59 0.60
0.86 0.80 0.76 0.73 0.75 0.78 0.76 0.66 0.76 0.62 0.52 0.36 0.47 0.76 0.70 0.86 0.87 0.83 0.80 0.70 0.70 0.63 0.54 0.41 0.35 0.28 0.37 0.26 0.27 0.27 0.28 0.35 0.30 0.32 0.39 0.44 0.48 0.53 0.57 0.57 0.58 0.60 0.62 0.64
0.89 0.86 0.83 0.79 0.78 0.76 0.73 0.72 0.75 0.77 0.51 0.37 0.46 0.63 0.68 0.70 0.73 0.72 0.73 0.69 0.63 0.56 0.48 0.44 0.38 0.43 0.40 0.41 0.39 0.31 0.33 0.28 0.26 0.25 0.38 0.41 0.44 0.52 0.55 0.55 0.58 0.63 0.61 0.54
0.90 0.89 0.86 0.83 0.84 0.87 0.74 0.51 0.71 0.80 0.74 0.46 0.34 0.61 0.58 0.65 0.68 0.63 0.62 0.63 0.61 0.57 0.48 0.45 0.48 0.53 0.41 0.32 0.30 0.37 0.39 0.43 0.44 0.38 0.47 0.47 0.51 0.57 0.62 0.62 0.62 0.61 0.55 0.51
0.89 0.89 0.87 0.86 0.84 0.82 0.64 0.55 0.73 0.86 0.76 0.47 0.39 0.40 0.57 0.63 0.65 0.63 0.61 0.64 0.59 0.57 0.52 0.47 0.46 0.47 0.49 0.40 0.30 0.38 0.43 0.46 0.48 0.51 0.52 0.50 0.56 0.56 0.65 0.63 0.63 0.55 0.52 0.48
0.89 0.89 0.87 0.87 0.87 0.87 0.73 0.80 0.88 0.88 0.65 0.57 0.39 0.40 0.46 0.64 0.52 0.51 0.65 0.58 0.61 0.60 0.56 0.58 0.49 0.54 0.52 0.38 0.42 0.46 0.49 0.51 0.53 0.56 0.58 0.57 0.62 0.64 0.63 0.64 0.54 0.50 0.46 0.44
0.90 0.90 0.88 0.81 0.73 0.64 0.71 0.85 0.86 0.88 0.67 0.46 0.44 0.33 0.31 0.60 0.54 0.59 0.60 0.64 0.49 0.63 0.53 0.53 0.56 0.48 0.38 0.41 0.44 0.46 0.49 0.49 0.52 0.59 0.62 0.63 0.61 0.59 0.56 0.53 0.49 0.45 0.43 0.42
0.91 0.84 0.68 0.56 0.68 0.85 0.82 0.69 0.56 0.57 0.62 0.59 0.43 0.49 0.39 0.50 0.50 0.49 0.50 0.54 0.48 0.40 0.46 0.57 0.44 0.39 0.47 0.49 0.50 0.51 0.53 0.56 0.60 0.58 0.57 0.60 0.58 0.55 0.53 0.47 0.46 0.46 0.42 0.34
0.81 0.68 0.62 0.78 0.88 0.74 0.63 0.51 0.47 0.50 0.43 0.52 0.51 0.50 0.44 0.59 0.46 0.46 0.54 0.46 0.47 0.35 0.38 0.39 0.35 0.33 0.42 0.50 0.52 0.59 0.64 0.65 0.66 0.67 0.65 0.59 0.55 0.51 0.46 0.47 0.46 0.40 0.30 0.25
0.83 0.82 0.86 0.82 0.69 0.62 0.54 0.50 0.53 0.49 0.45 0.55 0.53 0.55 0.60 0.62 0.65 0.53 0.55 0.47 0.49 0.36 0.51 0.41 0.34 0.42 0.54 0.54 0.54 0.56 0.59 0.59 0.58 0.59 0.58 0.56 0.52 0.52 0.47 0.41 0.33 0.29 0.27 0.26
0.87 0.76 0.68 0.64 0.61 0.48 0.44 0.39 0.43 0.44 0.52 0.56 0.57 0.54 0.61 0.64 0.65 0.57 0.53 0.44 0.41 0.53 0.41 0.36 0.41 0.52 0.54 0.52 0.52 0.51 0.53 0.55 0.53 0.54 0.56 0.51 0.45 0.42 0.34 0.29 0.28 0.27 0.27 0.26
0.64 0.57 0.47 0.49 0.44 0.45 0.46 0.46 0.48 0.54 0.56 0.55 0.57 0.54 0.54 0.58 0.54 0.52 0.43 0.47 0.47 0.37 0.32 0.32 0.45 0.53 0.54 0.52 0.49 0.47 0.45 0.45 0.42 0.40 0.42 0.40 0.35 0.32 0.30 0.29 0.29 0.27 0.24 0.24
0.47 0.50 0.41 0.44 0.50 0.52 0.52 0.55 0.54 0.57 0.59 0.57 0.53 0.52 0.53 0.49 0.46 0.47 0.43 0.38 0.33 0.35 0.32 0.40 0.48 0.51 0.51 0.46 0.45 0.45 0.44 0.44 0.43 0.41 0.37 0.34 0.31 0.29 0.27 0.27 0.27 0.26 0.25 0.25
0.41 0.40 0.37 0.44 0.44 0.46 0.50 0.51 0.50 0.58 0.56 0.57 0.54 0.46 0.42 0.40 0.41 0.37 0.35 0.33 0.30 0.34 0.41 0.46 0.48 0.48 0.47 0.49 0.49 0.44 0.42 0.40 0.38 0.36 0.32 0.30 0.27 0.25 0.25 0.25 0.25 0.25 0.25 0.25
0.33 0.31 0.40 0.39 0.38 0.39 0.43 0.47 0.48 0.57 0.50 0.42 0.45 0.37 0.36 0.42 0.35 0.33 0.39 0.33 0.38 0.42 0.44 0.46 0.46 0.45 0.45 0.45 0.44 0.42 0.39 0.37 0.34 0.31 0.28 0.25 0.25 0.25 0.24 0.22 0.23 0.25 0.26 0.27

GFSNW_prec_pwat_030.txt.gz
Precipitable_Water
0.73 0.78 0.76 0.79 0.77 0.83 0.82 0.57 0.35 0.79 0.74 0.39 0.42 0.37 0.44 0.54 0.39 0.42 0.37 0.34 0.33 0.31 0.33 0.30 0.29 0.28 0.32 0.44 0.40 0.31 0.40 0.34 0.28 0.31 0.33 0.35 0.31 0.24 0.20 0.11 0.11 0.17 0.15 0.12
0.74 0.76 0.78 0.79 0.78 0.83 0.73 0.46 0.53 0.80 0.58 0.29 0.35 0.43 0.46 0.47 0.40 0.39 0.37 0.35 0.39 0.42 0.39 0.33 0.33 0.34 0.43 0.47 0.36 0.32 0.37 0.31 0.25 0.24 0.26 0.31 0.22 0.25 0.24 0.21 0.19 0.13 0.11 0.11
0.74 0.76 0.78 0.79 0.78 0.81 0.75 0.49 0.37 0.52 0.50 0.38 0.37 0.39 0.41 0.41 0.47 0.41 0.42 0.41 0.43 0.40 0.41 0.43 0.38 0.40 0.46 0.47 0.42 0.39 0.39 0.30 0.24 0.17 0.17 0.22 0.19 0.22 0.23 0.19 0.13 0.13 0.13 0.14
0.74 0.76 0.79 0.78 0.78 0.81 0.78 0.52 0.40 0.43 0.30 0.32 0.36 0.38 0.41 0.38 0.35 0.41 0.42 0.38 0.39 0.37 0.36 0.39 0.38 0.44 0.44 0.43 0.45 0.39 0.31 0.22 0.27 0.25 0.24 0.22 0.19 0.18 0.19 0.16 0.17 0.13 0.13 0.15
0.75 0.77 0.80 0.77 0.77 0.84 0.70 0.49 0.43 0.41 0.34 0.34 0.32 0.34 0.35 0.36 0.38 0.38 0.30 0.31 0.38 0.39 0.38 0.39 0.35 0.39 0.38 0.33 0.36 0.33 0.35 0.22 0.22 0.20 0.25 0.22 0.17 0.18 0.18 0.18 0.18 0.18 0.19 0.16
0.78 0.79 0.79 0.75 0.76 0.80 0.62 0.68 0.63 0.40 0.33 0.32 0.27 0.28 0.35 0.36 0.36 0.39 0.39 0.35 0.31 0.35 0.41 0.49 0.49 0.47 0.44 0.38 0.31 0.27 0.25 0.21 0.16 0.13 0.19 0.18 0.13 0.13 0.15 0.16 0.18 0.17 0.14 0.17
0.80 0.81 0.79 0.73 0.74 0.76 0.67 0.68 0.65 0.41 0.26 0.26 0.27 0.28 0.37 0.36 0.35 0.33 0.40 0.40 0.35 0.44 0.57 0.56 0.52 0.48 0.46 0.43 0.39 0.36 0.24 0.19 0.16 0.11 0.14 0.07 0.11 0.19 0.20 0.18 0.19 0.22 0.23 0.25
0.84 0.82 0.77 0.72 0.72 0.77 0.71 0.80 0.69 0.48 0.29 0.26 0.29 0.32 0.36 0.41 0.45 0.41 0.41 0.43 0.48 0.53 0.47 0.42 0.37 0.35 0.35 0.36 0.41 0.39 0.36 0.24 0.15 0.12 0.11 0.12 0.12 0.16 0.18 0.17 0.16 0.25 0.25 0.30
0.86 0.81 0.77 0.72 0.69 0.72 0.76 0.85 0.82 0.61 0.38 0.27 0.36 0.35 0.39 0.35 0.38 0.40 0.46 0.56 0.55 0.50 0.38 0.34 0.27 0.25 0.27 0.23 0.29 0.41 0.37 0.34 0.23 0.18 0.12 0.09 0.13 0.20 0.28 0.27 0.15 0.25 0.27 0.29
0.86 0.83 0.80 0.73 0.67 0.70 0.83 0.89 0.93 0.66 0.45 0.49 0.49 0.37 0.36 0.42 0.43 0.40 0.45 0.47 0.46 0.49 0.34 0.28 0.26 0.25 0.28 0.22 0.21 0.24 0.27 0.27 0.20 0.18 0.14 0.15 0.18 0.26 0.31 0.15 0.13 0.26 0.30 0.31
0.87 0.88 0.84 0.75 0.70 0.76 0.81 0.88 0.94 0.70 0.59 0.61 0.65 0.63 0.53 0.50 0.48 0.37 0.46 0.44 0.47 0.40 0.32 0.30 0.29 0.27 0.28 0.25 0.27 0.26 0.23 0.20 0.19 0.20 0.16 0.12 0.26 0.30 0.21 0.25 0.29 0.31 0.34 0.37
0.89 0.90 0.85 0.77 0.76 0.85 1.09 0.89 0.93 0.86 0.65 0.67 0.81 0.78 0.77 0.68 0.57 0.52 0.54 0.46 0.44 0.44 0.37 0.35 0.32 0.27 0.29 0.25 0.18 0.32 0.21 0.25 0.20 0.21 0.18 0.26 0.30 0.30 0.35 0.37 0.35 0.37 0.40 0.44
0.92 0.91 0.87 0.78 0.81 0.89 1.01 0.89 0.80 0.71 0.61 0.63 0.67 0.64 0.77 0.82 0.78 0.76 0.48 0.50 0.52 0.48 0.50 0.39 0.33 0.24 0.29 0.20 0.22 0.25 0.29 0.33 0.25 0.24 0.25 0.27 0.32 0.36 0.40 0.43 0.43 0.47 0.50 0.52
0.90 0.90 0.85 0.80 0.79 0.83 0.87 0.74 0.77 0.63 0.57 0.47 0.56 0.81 0.73 0.85 0.84 0.76 0.69 0.61 0.62 0.57 0.51 0.40 0.35 0.28 0.36 0.26 0.28 0.26 0.30 0.31 0.28 0.27 0.30 0.34 0.36 0.40 0.42 0.44 0.48 0.49 0.54 0.57
0.89 0.91 0.90 0.83 0.79 0.77 0.78 0.77 0.75 0.67 0.45 0.37 0.51 0.68 0.74 0.82 0.81 0.75 0.74 0.68 0.62 0.56 0.50 0.45 0.38 0.40 0.37 0.37 0.35 0.29 0.33 0.29 0.27 0.25 0.32 0.33 0.34 0.41 0.47 0.47 0.48 0.52 0.54 0.56
0.80 0.82 0.86 0.88 0.86 0.79 0.63 0.50 0.71 0.70 0.60 0.40 0.34 0.60 0.64 0.72 0.76 0.74 0.72 0.70 0.64 0.59 0.51 0.46 0.47 0.50 0.42 0.33 0.30 0.33 0.38 0.40 0.41 0.36 0.44 0.46 0.48 0.52 0.56 0.54 0.56 0.59 0.60 0.62
0.79 0.77 0.77 0.75 0.71 0.62 0.48 0.45 0.67 0.73 0.62 0.40 0.36 0.37 0.54 0.62 0.61 0.60 0.59 0.63 0.57 0.55 0.50 0.46 0.46 0.47 0.48 0.39 0.29 0.34 0.43 0.49 0.51 0.55 0.56 0.50 0.55 0.52 0.59 0.60 0.60 0.60 0.60 0.58
0.85 0.81 0.79 0.77 0.73 0.69 0.60 0.72 0.76 0.70 0.50 0.43 0.30 0.32 0.39 0.58 0.47 0.43 0.56 0.49 0.52 0.52 0.48 0.49 0.43 0.47 0.47 0.35 0.44 0.51 0.54 0.56 0.56 0.57 0.60 0.57 0.59 0.61 0.59 0.61 0.62 0.59 0.57 0.61
0.87 0.85 0.83 0.77 0.69 0.61 0.68 0.83 0.80 0.75 0.54 0.38 0.37 0.30 0.29 0.56 0.48 0.51 0.52 0.54 0.42 0.54 0.46 0.48 0.51 0.45 0.39 0.45 0.47 0.49 0.52 0.52 0.53 0.57 0.58 0.58 0.58 0.58 0.59 0.60 0.59 0.59 0.59 0.55
0.86 0.77 0.65 0.58 0.72 0.88 0.85 0.72 0.60 0.60 0.60 0.58 0.42 0.48 0.38 0.48 0.46 0.44 0.45 0.50 0.42 0.36 0.43 0.53 0.43 0.40 0.49 0.47 0.49 0.53 0.57 0.58 0.61 0.56 0.53 0.56 0.57 0.59 0.59 0.58 0.59 0.57 0.53 0.55
0.77 0.66 0.63 0.80 0.87 0.73 0.62 0.51 0.49 0.52 0.48 0.54 0.53 0.50 0.42 0.54 0.40 0.41 0.48 0.41 0.41 0.30 0.36 0.38 0.34 0.35 0.45 0.51 0.54 0.59 0.61 0.62 0.62 0.63 0.62 0.62 0.60 0.57 0.55 0.54 0.55 0.56 0.49 0.41
0.76 0.75 0.81 0.76 0.64 0.55 0.47 0.45 0.48 0.45 0.40 0.49 0.46 0.47 0.50 0.51 0.55 0.44 0.46 0.39 0.41 0.31 0.45 0.39 0.33 0.42 0.50 0.54 0.56 0.59 0.60 0.60 0.58 0.59 0.57 0.57 0.56 0.56 0.53 0.50 0.45 0.42 0.38 0.35
0.75 0.65 0.56 0.52 0.51 0.40 0.37 0.33 0.37 0.38 0.45 0.48 0.48 0.45 0.53 0.58 0.60 0.54 0.52 0.44 0.41 0.52 0.41 0.38 0.41 0.48 0.51 0.53 0.54 0.53 0.54 0.53 0.52 0.52 0.51 0.48 0.47 0.46 0.41 0.37 0.36 0.34 0.32 0.32
0.63 0.55 0.44 0.43 0.42 0.43 0.43 0.42 0.42 0.48 0.50 0.52 0.55 0.54 0.53 0.58 0.54 0.53 0.44 0.47 0.48 0.36 0.32 0.33 0.42 0.47 0.49 0.47 0.49 0.46 0.44 0.45 0.44 0.42 0.40 0.39 0.39 0.37 0.36 0.35 0.34 0.32 0.29 0.29
0.58 0.57 0.43 0.43 0.48 0.51 0.51 0.53 0.52 0.56 0.60 0.58 0.56 0.55 0.55 0.51 0.47 0.48 0.45 0.39 0.33 0.34 0.32 0.39 0.46 0.49 0.47 0.48 0.49 0.43 0.40 0.40 0.38 0.38 0.36 0.35 0.34 0.32 0.31 0.31 0.30 0.28 0.26 0.25
0.56 0.52 0.46 0.50 0.48 0.48 0.51 0.53 0.52 0.59 0.59 0.59 0.56 0.47 0.43 0.42 0.43 0.38 0.36 0.33 0.30 0.34 0.41 0.46 0.48 0.48 0.48 0.48 0.49 0.45 0.45 0.42 0.37 0.35 0.33 0.31 0.29 0.27 0.25 0.25 0.25 0.25 0.25 0.23
0.43 0.42 0.51 0.49 0.47 0.45 0.48 0.52 0.52 0.59 0.52 0.43 0.45 0.37 0.35 0.42 0.35 0.33 0.37 0.32 0.37 0.42 0.44 0.47 0.47 0.45 0.45 0.47 0.42 0.41 0.37 0.34 0.33 0.32 0.29 0.26 0.26 0.25 0.24 0.22 0.24 0.26 0.27 0.27

GFSNW_prec_pwat_033.txt.gz
Precipitable_Water
0.83 0.79 0.79 0.81 0.82 0.83 0.78 0.62 0.41 0.93 0.87 0.47 0.42 0.32 0.36 0.55 0.43 0.41 0.30 0.29 0.26 0.22 0.25 0.24 0.23 0.20 0.26 0.36 0.34 0.28 0.35 0.31 0.26 0.32 0.36 0.36 0.30 0.25 0.20 0.13 0.11 0.15 0.13 0.10
0.82 0.83 0.81 0.81 0.82 0.80 0.75 0.55 0.58 0.91 0.71 0.33 0.32 0.38 0.43 0.50 0.39 0.37 0.33 0.31 0.36 0.37 0.32 0.28 0.32 0.32 0.40 0.42 0.37 0.31 0.34 0.29 0.24 0.27 0.31 0.34 0.27 0.26 0.23 0.20 0.19 0.12 0.10 0.09
0.84 0.82 0.83 0.83 0.82 0.81 0.81 0.61 0.44 0.61 0.58 0.45 0.35 0.38 0.38 0.41 0.47 0.41 0.41 0.37 0.39 0.38 0.37 0.43 0.36 0.33 0.40 0.43 0.42 0.42 0.37 0.29 0.26 0.21 0.22 0.25 0.22 0.24 0.23 0.20 0.14 0.12 0.12 0.12
0.85 0.82 0.83 0.84 0.80 0.86 0.85 0.59 0.46 0.55 0.35 0.34 0.36 0.40 0.42 0.39 0.37 0.43 0.44 0.39 0.37 0.36 0.34 0.39 0.37 0.42 0.41 0.46 0.49 0.42 0.32 0.23 0.27 0.28 0.28 0.25 0.21 0.20 0.22 0.19 0.17 0.11 0.11 0.13
0.82 0.83 0.84 0.83 0.80 0.91 0.77 0.50 0.45 0.49 0.37 0.37 0.36 0.39 0.40 0.38 0.41 0.38 0.35 0.33 0.39 0.40 0.34 0.38 0.36 0.41 0.40 0.36 0.43 0.39 0.36 0.23 0.24 0.22 0.27 0.25 0.20 0.21 0.19 0.20 0.19 0.17 0.17 0.15
0.81 0.83 0.84 0.84 0.80 0.88 0.72 0.74 0.60 0.43 0.39 0.36 0.33 0.35 0.42 0.41 0.45 0.45 0.42 0.35 0.35 0.36 0.41 0.50 0.51 0.50 0.44 0.40 0.35 0.34 0.29 0.24 0.21 0.15 0.20 0.19 0.15 0.17 0.17 0.17 0.17 0.16 0.13 0.16
0.81 0.83 0.83 0.84 0.81 0.83 0.78 0.73 0.58 0.39 0.31 0.34 0.32 0.37 0.45 0.41 0.42 0.37 0.39 0.38 0.32 0.41 0.56 0.54 0.50 0.47 0.44 0.41 0.37 0.34 0.24 0.22 0.21 0.14 0.15 0.08 0.12 0.19 0.18 0.16 0.16 0.19 0.19 0.22
0.82 0.83 0.84 0.82 0.82 0.86 0.84 0.78 0.64 0.45 0.30 0.33 0.34 0.37 0.39 0.46 0.46 0.38 0.37 0.42 0.46 0.52 0.45 0.38 0.36 0.36 0.36 0.37 0.41 0.38 0.33 0.23 0.17 0.13 0.12 0.13 0.13 0.15 0.16 0.16 0.14 0.20 0.19 0.25
0.81 0.84 0.83 0.79 0.82 0.85 0.86 0.81 0.79 0.60 0.36 0.29 0.38 0.34 0.39 0.37 0.37 0.37 0.42 0.51 0.53 0.47 0.36 0.33 0.26 0.24 0.29 0.25 0.31 0.42 0.37 0.34 0.25 0.20 0.14 0.11 0.14 0.20 0.28 0.26 0.13 0.23 0.25 0.28
0.85 0.84 0.82 0.78 0.81 0.85 0.84 0.79 0.83 0.69 0.45 0.47 0.42 0.34 0.32 0.44 0.41 0.36 0.42 0.44 0.44 0.47 0.32 0.27 0.25 0.25 0.30 0.23 0.21 0.25 0.28 0.28 0.22 0.20 0.17 0.17 0.21 0.24 0.31 0.14 0.14 0.25 0.28 0.29
0.87 0.84 0.80 0.79 0.79 0.81 0.79 0.80 0.90 0.71 0.57 0.55 0.53 0.49 0.39 0.43 0.44 0.34 0.44 0.42 0.44 0.39 0.30 0.28 0.27 0.26 0.27 0.26 0.27 0.25 0.23 0.21 0.20 0.21 0.17 0.13 0.26 0.28 0.20 0.25 0.30 0.30 0.33 0.35
0.91 0.85 0.79 0.76 0.75 0.77 0.80 0.74 0.93 0.92 0.68 0.58 0.67 0.69 0.70 0.59 0.52 0.46 0.52 0.45 0.43 0.44 0.35 0.33 0.31 0.27 0.29 0.25 0.19 0.32 0.21 0.25 0.21 0.21 0.18 0.26 0.30 0.29 0.34 0.36 0.34 0.36 0.39 0.43
0.93 0.88 0.82 0.75 0.71 0.76 0.83 0.85 0.94 0.84 0.71 0.66 0.67 0.65 0.80 0.85 0.78 0.74 0.45 0.51 0.54 0.46 0.48 0.39 0.35 0.26 0.30 0.21 0.22 0.25 0.29 0.33 0.25 0.24 0.25 0.27 0.32 0.36 0.39 0.41 0.41 0.45 0.48 0.49
0.95 0.88 0.82 0.76 0.76 0.84 0.82 0.81 0.91 0.78 0.66 0.56 0.63 0.87 0.77 0.87 0.85 0.75 0.69 0.61 0.61 0.57 0.51 0.40 0.34 0.27 0.36 0.28 0.30 0.28 0.30 0.32 0.28 0.27 0.30 0.33 0.35 0.39 0.42 0.43 0.46 0.47 0.51 0.53
0.96 0.86 0.81 0.80 0.85 0.91 0.85 0.92 0.87 0.79 0.54 0.47 0.58 0.74 0.81 0.84 0.80 0.73 0.70 0.63 0.57 0.51 0.43 0.40 0.37 0.42 0.40 0.41 0.37 0.29 0.34 0.30 0.28 0.26 0.34 0.36 0.37 0.45 0.50 0.49 0.51 0.55 0.55 0.55
0.95 0.91 0.87 0.86 0.89 0.93 0.87 0.64 0.80 0.76 0.69 0.50 0.45 0.68 0.70 0.77 0.78 0.72 0.68 0.66 0.62 0.59 0.53 0.50 0.51 0.54 0.43 0.34 0.30 0.38 0.43 0.45 0.45 0.39 0.48 0.49 0.52 0.56 0.60 0.57 0.58 0.59 0.58 0.57
0.96 0.92 0.85 0.82 0.78 0.72 0.59 0.55 0.72 0.74 0.64 0.43 0.38 0.43 0.63 0.72 0.71 0.69 0.68 0.71 0.65 0.61 0.53 0.47 0.46 0.46 0.47 0.39 0.31 0.41 0.46 0.50 0.54 0.59 0.58 0.53 0.57 0.54 0.61 0.59 0.57 0.58 0.59 0.61
0.87 0.87 0.85 0.82 0.79 0.76 0.67 0.76 0.76 0.68 0.49 0.43 0.32 0.34 0.42 0.61 0.48 0.44 0.58 0.51 0.54 0.52 0.48 0.49 0.43 0.47 0.45 0.34 0.41 0.47 0.52 0.55 0.57 0.58 0.62 0.60 0.60 0.58 0.57 0.59 0.60 0.60 0.60 0.62
0.81 0.78 0.74 0.68 0.62 0.57 0.67 0.77 0.73 0.66 0.46 0.33 0.32 0.26 0.26 0.53 0.46 0.48 0.49 0.52 0.38 0.50 0.42 0.43 0.46 0.41 0.35 0.40 0.43 0.48 0.51 0.51 0.51 0.54 0.56 0.58 0.58 0.59 0.60 0.61 0.60 0.57 0.57 0.57
0.82 0.72 0.59 0.53 0.69 0.80 0.74 0.59 0.49 0.49 0.51 0.49 0.37 0.45 0.35 0.47 0.46 0.43 0.43 0.47 0.39 0.33 0.41 0.51 0.41 0.38 0.44 0.47 0.50 0.53 0.56 0.58 0.61 0.55 0.53 0.56 0.57 0.57 0.57 0.56 0.57 0.56 0.54 0.52
0.73 0.64 0.63 0.78 0.84 0.68 0.59 0.49 0.45 0.48 0.42 0.49 0.49 0.49 0.43 0.56 0.42 0.41 0.47 0.40 0.40 0.30 0.35 0.37 0.34 0.33 0.40 0.50 0.53 0.57 0.60 0.61 0.61 0.60 0.59 0.58 0.56 0.53 0.52 0.51 0.50 0.49 0.47 0.44
0.78 0.77 0.80 0.75 0.64 0.57 0.50 0.47 0.51 0.47 0.43 0.52 0.51 0.52 0.55 0.54 0.57 0.45 0.46 0.37 0.38 0.28 0.42 0.36 0.30 0.39 0.51 0.55 0.57 0.59 0.60 0.58 0.56 0.55 0.51 0.50 0.48 0.47 0.46 0.46 0.44 0.41 0.39 0.37
0.82 0.72 0.64 0.60 0.58 0.45 0.40 0.36 0.40 0.41 0.49 0.51 0.50 0.45 0.51 0.52 0.52 0.46 0.44 0.37 0.36 0.48 0.40 0.37 0.41 0.48 0.53 0.54 0.53 0.53 0.54 0.52 0.50 0.48 0.47 0.46 0.43 0.41 0.38 0.34 0.34 0.33 0.32 0.31
0.60 0.53 0.42 0.43 0.41 0.42 0.41 0.40 0.41 0.46 0.48 0.49 0.50 0.47 0.47 0.53 0.49 0.50 0.42 0.46 0.47 0.36 0.33 0.34 0.43 0.48 0.49 0.51 0.49 0.46 0.43 0.41 0.39 0.38 0.36 0.34 0.33 0.32 0.32 0.31 0.30 0.27 0.25 0.26
0.55 0.52 0.40 0.41 0.46 0.49 0.49 0.51 0.51 0.54 0.58 0.56 0.53 0.54 0.54 0.50 0.47 0.48 0.45 0.39 0.34 0.35 0.33 0.40 0.46 0.50 0.48 0.49 0.45 0.42 0.42 0.40 0.38 0.36 0.34 0.32 0.30 0.28 0.26 0.27 0.27 0.26 0.26 0.25
0.58 0.53 0.45 0.49 0.47 0.48 0.52 0.53 0.52 0.60 0.59 0.60 0.57 0.49 0.45 0.43 0.44 0.39 0.37 0.35 0.31 0.34 0.41 0.46 0.48 0.47 0.47 0.47 0.46 0.45 0.44 0.39 0.37 0.35 0.33 0.30 0.27 0.25 0.25 0.26 0.26 0.25 0.25 0.24
0.49 0.46 0.53 0.52 0.51 0.49 0.51 0.54 0.54 0.61 0.55 0.46 0.47 0.39 0.37 0.43 0.35 0.33 0.37 0.32 0.36 0.42 0.44 0.46 0.46 0.45 0.46 0.47 0.45 0.42 0.38 0.36 0.33 0.31 0.28 0.26 0.26 0.26 0.23 0.20 0.21 0.21 0.21 0.20

GFSNW_prec_pwat_039.txt.gz
Precipitable_Water
0.55 0.57 0.55 0.64 0.94 0.97 0.74 0.64 0.44 0.81 0.78 0.42 0.55 0.46 0.49 0.51 0.45 0.48 0.35 0.36 0.29 0.28 0.30 0.29 0.27 0.26 0.33 0.38 0.39 0.31 0.38 0.34 0.27 0.30 0.38 0.35 0.33 0.32 0.31 0.22 0.20 0.22 0.21 0.15
0.57 0.58 0.57 0.70 0.97 0.98 0.69 0.57 0.64 0.96 0.63 0.32 0.45 0.52 0.51 0.47 0.42 0.43 0.36 0.30 0.32 0.34 0.34 0.29 0.30 0.29 0.46 0.42 0.37 0.34 0.39 0.24 0.20 0.26 0.30 0.30 0.26 0.29 0.29 0.30 0.28 0.20 0.16 0.16
0.58 0.60 0.61 0.79 0.95 0.91 0.77 0.62 0.52 0.69 0.63 0.51 0.52 0.50 0.44 0.39 0.52 0.43 0.39 0.33 0.34 0.32 0.28 0.32 0.32 0.32 0.37 0.36 0.36 0.36 0.35 0.22 0.25 0.21 0.26 0.35 0.33 0.32 0.33 0.29 0.21 0.18 0.17 0.20
0.57 0.58 0.59 0.74 0.93 0.85 0.86 0.68 0.50 0.56 0.37 0.43 0.56 0.57 0.46 0.37 0.38 0.48 0.44 0.40 0.35 0.30 0.28 0.29 0.34 0.38 0.36 0.37 0.37 0.35 0.36 0.26 0.28 0.28 0.33 0.32 0.32 0.30 0.30 0.28 0.26 0.20 0.20 0.22
0.55 0.59 0.68 0.82 0.87 0.88 0.83 0.63 0.49 0.56 0.45 0.53 0.63 0.58 0.44 0.37 0.41 0.44 0.38 0.32 0.36 0.38 0.36 0.37 0.35 0.41 0.39 0.34 0.39 0.38 0.40 0.30 0.31 0.27 0.30 0.28 0.25 0.28 0.28 0.25 0.25 0.23 0.22 0.20
0.53 0.61 0.74 0.83 0.85 0.94 0.76 0.81 0.65 0.58 0.57 0.50 0.54 0.52 0.43 0.40 0.53 0.54 0.48 0.38 0.37 0.40 0.47 0.53 0.54 0.58 0.55 0.52 0.46 0.43 0.42 0.36 0.30 0.22 0.26 0.24 0.19 0.21 0.23 0.24 0.25 0.25 0.21 0.24
0.54 0.69 0.77 0.82 0.89 0.91 0.87 0.90 0.78 0.57 0.51 0.50 0.47 0.51 0.48 0.45 0.57 0.47 0.51 0.53 0.47 0.53 0.58 0.55 0.52 0.51 0.52 0.51 0.49 0.51 0.39 0.36 0.35 0.25 0.22 0.14 0.20 0.25 0.22 0.20 0.22 0.25 0.26 0.25
0.61 0.75 0.80 0.84 0.96 0.95 0.96 1.06 0.74 0.64 0.51 0.57 0.51 0.49 0.49 0.55 0.63 0.55 0.52 0.52 0.57 0.60 0.51 0.38 0.35 0.37 0.38 0.42 0.43 0.39 0.41 0.36 0.27 0.22 0.19 0.21 0.21 0.21 0.22 0.20 0.19 0.26 0.25 0.25
0.70 0.79 0.84 0.88 0.97 0.97 1.06 1.01 1.03 0.72 0.55 0.55 0.51 0.46 0.51 0.57 0.57 0.53 0.49 0.58 0.58 0.50 0.42 0.36 0.26 0.25 0.28 0.32 0.35 0.40 0.36 0.37 0.27 0.22 0.18 0.16 0.25 0.27 0.29 0.27 0.19 0.29 0.28 0.26
0.81 0.88 0.95 0.98 0.96 0.97 1.03 1.04 0.96 0.71 0.51 0.54 0.56 0.45 0.49 0.58 0.58 0.52 0.53 0.51 0.48 0.49 0.36 0.28 0.28 0.30 0.35 0.28 0.29 0.30 0.33 0.33 0.27 0.27 0.25 0.27 0.32 0.31 0.31 0.18 0.25 0.33 0.29 0.29
0.91 0.96 0.96 0.94 0.91 0.98 1.04 1.04 1.05 0.77 0.63 0.63 0.62 0.58 0.53 0.65 0.61 0.51 0.54 0.49 0.49 0.42 0.31 0.34 0.34 0.31 0.31 0.29 0.31 0.29 0.28 0.27 0.25 0.31 0.24 0.17 0.30 0.29 0.22 0.36 0.33 0.36 0.36 0.37
0.95 0.93 0.91 0.90 0.93 1.01 1.10 0.95 0.99 0.90 0.65 0.63 0.74 0.71 0.78 0.77 0.77 0.66 0.58 0.54 0.50 0.46 0.39 0.41 0.43 0.31 0.32 0.31 0.24 0.34 0.27 0.32 0.30 0.28 0.29 0.37 0.32 0.32 0.37 0.38 0.36 0.37 0.40 0.43
0.89 0.91 0.92 0.90 0.96 1.00 1.06 1.01 0.92 0.80 0.70 0.68 0.64 0.60 0.69 0.77 0.82 0.87 0.56 0.61 0.59 0.50 0.59 0.46 0.44 0.30 0.38 0.25 0.29 0.33 0.34 0.37 0.29 0.27 0.31 0.33 0.35 0.40 0.41 0.44 0.44 0.46 0.48 0.48
0.91 0.91 0.91 0.92 0.97 0.97 1.06 0.97 0.93 0.79 0.73 0.59 0.61 0.79 0.65 0.74 0.77 0.79 0.79 0.66 0.63 0.61 0.60 0.47 0.39 0.34 0.42 0.35 0.36 0.33 0.38 0.36 0.32 0.32 0.35 0.37 0.40 0.46 0.49 0.49 0.53 0.54 0.56 0.58
0.92 0.92 0.91 0.94 0.95 0.97 1.06 0.99 0.90 0.85 0.69 0.55 0.59 0.70 0.71 0.71 0.68 0.64 0.67 0.65 0.58 0.58 0.52 0.43 0.41 0.44 0.42 0.42 0.39 0.36 0.39 0.38 0.34 0.32 0.42 0.41 0.44 0.55 0.55 0.53 0.53 0.56 0.58 0.58
0.91 0.92 0.91 0.89 0.93 0.99 0.93 0.71 0.85 0.85 0.89 0.69 0.51 0.72 0.66 0.74 0.75 0.66 0.62 0.64 0.65 0.65 0.57 0.51 0.52 0.55 0.49 0.37 0.34 0.46 0.48 0.48 0.47 0.44 0.51 0.52 0.54 0.52 0.54 0.52 0.53 0.54 0.54 0.54
0.89 0.89 0.88 0.90 0.97 0.98 0.80 0.64 0.81 0.95 0.92 0.71 0.55 0.53 0.69 0.78 0.75 0.72 0.70 0.75 0.71 0.69 0.60 0.54 0.55 0.52 0.53 0.44 0.37 0.43 0.44 0.47 0.51 0.53 0.54 0.53 0.52 0.50 0.56 0.57 0.57 0.58 0.59 0.61
0.87 0.88 0.90 0.92 0.95 0.90 0.74 0.81 0.87 0.91 0.70 0.72 0.56 0.55 0.62 0.78 0.65 0.62 0.74 0.66 0.68 0.64 0.59 0.61 0.54 0.56 0.56 0.42 0.44 0.46 0.48 0.51 0.50 0.52 0.55 0.53 0.54 0.55 0.55 0.57 0.58 0.56 0.56 0.57
0.89 0.89 0.91 0.91 0.87 0.73 0.74 0.83 0.87 0.86 0.68 0.47 0.45 0.48 0.46 0.78 0.66 0.68 0.70 0.72 0.54 0.66 0.54 0.56 0.56 0.46 0.36 0.39 0.42 0.44 0.48 0.49 0.49 0.53 0.53 0.53 0.51 0.52 0.55 0.56 0.54 0.51 0.51 0.52
0.89 0.87 0.74 0.63 0.78 0.84 0.81 0.72 0.65 0.63 0.60 0.55 0.43 0.54 0.42 0.59 0.60 0.55 0.55 0.56 0.47 0.37 0.43 0.51 0.41 0.35 0.42 0.46 0.49 0.50 0.51 0.53 0.54 0.48 0.46 0.50 0.52 0.53 0.53 0.51 0.51 0.49 0.48 0.48
0.76 0.66 0.64 0.80 0.85 0.75 0.66 0.53 0.51 0.53 0.44 0.50 0.49 0.50 0.42 0.57 0.43 0.41 0.48 0.39 0.40 0.29 0.35 0.36 0.33 0.32 0.40 0.49 0.49 0.51 0.52 0.54 0.56 0.58 0.58 0.57 0.54 0.51 0.49 0.49 0.47 0.44 0.39 0.35
0.74 0.75 0.80 0.75 0.63 0.55 0.47 0.46 0.50 0.47 0.40 0.47 0.43 0.44 0.47 0.49 0.56 0.43 0.46 0.37 0.39 0.30 0.45 0.37 0.31 0.38 0.46 0.48 0.49 0.53 0.56 0.57 0.56 0.56 0.54 0.53 0.52 0.49 0.44 0.39 0.35 0.31 0.30 0.28
0.82 0.67 0.57 0.55 0.54 0.43 0.41 0.36 0.39 0.39 0.46 0.48 0.48 0.43 0.50 0.53 0.54 0.46 0.44 0.38 0.37 0.47 0.37 0.33 0.36 0.42 0.46 0.49 0.52 0.53 0.55 0.55 0.53 0.50 0.48 0.44 0.39 0.37 0.35 0.32 0.30 0.29 0.27 0.26
0.62 0.55 0.45 0.48 0.44 0.46 0.45 0.43 0.43 0.48 0.51 0.51 0.52 0.49 0.50 0.54 0.49 0.49 0.40 0.44 0.44 0.33 0.29 0.29 0.38 0.45 0.51 0.54 0.54 0.53 0.49 0.47 0.44 0.42 0.40 0.37 0.35 0.33 0.32 0.30 0.28 0.25 0.22 0.22
0.60 0.58 0.45 0.45 0.51 0.53 0.54 0.56 0.54 0.57 0.61 0.58 0.53 0.52 0.52 0.47 0.43 0.45 0.41 0.35 0.31 0.33 0.32 0.40 0.48 0.53 0.54 0.53 0.52 0.48 0.43 0.42 0.41 0.40 0.37 0.35 0.34 0.32 0.29 0.27 0.24 0.22 0.20 0.19
0.60 0.56 0.48 0.53 0.51 0.49 0.52 0.54 0.53 0.60 0.57 0.57 0.53 0.44 0.41 0.39 0.42 0.38 0.37 0.36 0.33 0.38 0.45 0.51 0.55 0.53 0.52 0.49 0.49 0.46 0.44 0.43 0.42 0.40 0.37 0.34 0.31 0.28 0.25 0.23 0.20 0.19 0.20 0.19
0.51 0.48 0.56 0.53 0.52 0.50 0.52 0.54 0.53 0.61 0.55 0.46 0.47 0.39 0.38 0.46 0.40 0.38 0.44 0.38 0.43 0.48 0.50 0.53 0.53 0.51 0.49 0.49 0.47 0.44 0.43 0.41 0.39 0.37 0.34 0.28 0.25 0.23 0.20 0.19 0.19 0.19 0.19 0.19

GFSNW_prec_pwat_042.txt.gz
Precipitable_Water
0.61 0.58 0.54 0.50 0.51 0.60 0.83 0.66 0.44 0.70 0.77 0.47 0.39 0.34 0.41 0.48 0.54 0.54 0.44 0.37 0.34 0.32 0.33 0.31 0.25 0.26 0.31 0.37 0.41 0.37 0.33 0.38 0.36 0.37 0.40 0.36 0.34 0.35 0.35 0.26 0.20 0.25 0.21 0.19
0.63 0.59 0.55 0.53 0.54 0.63 0.75 0.54 0.60 0.90 0.69 0.33 0.30 0.40 0.43 0.48 0.53 0.55 0.44 0.37 0.37 0.36 0.31 0.29 0.29 0.33 0.47 0.46 0.37 0.34 0.38 0.30 0.24 0.26 0.33 0.37 0.28 0.23 0.26 0.29 0.34 0.23 0.23 0.19
0.62 0.59 0.56 0.56 0.54 0.70 0.79 0.60 0.47 0.71 0.69 0.47 0.34 0.35 0.38 0.41 0.55 0.48 0.49 0.40 0.36 0.36 0.33 0.38 0.34 0.35 0.44 0.47 0.44 0.40 0.42 0.34 0.25 0.19 0.21 0.36 0.35 0.37 0.31 0.31 0.26 0.23 0.22 0.21
0.64 0.60 0.57 0.58 0.54 0.70 0.81 0.64 0.45 0.59 0.43 0.41 0.36 0.46 0.42 0.43 0.42 0.46 0.49 0.39 0.34 0.33 0.31 0.35 0.32 0.35 0.42 0.41 0.39 0.34 0.32 0.22 0.21 0.23 0.29 0.34 0.32 0.35 0.34 0.31 0.32 0.27 0.26 0.25
0.65 0.62 0.61 0.59 0.58 0.73 0.71 0.53 0.48 0.56 0.52 0.52 0.39 0.45 0.41 0.43 0.44 0.42 0.44 0.40 0.36 0.36 0.34 0.32 0.31 0.37 0.42 0.33 0.33 0.29 0.33 0.23 0.30 0.30 0.35 0.32 0.27 0.27 0.28 0.27 0.29 0.27 0.28 0.27
0.62 0.61 0.61 0.56 0.60 0.81 0.68 0.71 0.68 0.65 0.50 0.48 0.37 0.40 0.47 0.51 0.49 0.45 0.48 0.45 0.41 0.38 0.45 0.52 0.57 0.53 0.55 0.47 0.43 0.35 0.36 0.31 0.32 0.24 0.30 0.26 0.19 0.20 0.22 0.23 0.27 0.28 0.24 0.28
0.58 0.58 0.58 0.56 0.63 0.80 0.74 0.67 0.74 0.64 0.43 0.44 0.34 0.47 0.55 0.56 0.45 0.48 0.53 0.53 0.41 0.59 0.69 0.64 0.58 0.53 0.58 0.56 0.55 0.55 0.46 0.42 0.39 0.27 0.26 0.16 0.22 0.28 0.25 0.23 0.23 0.24 0.27 0.29
0.51 0.53 0.56 0.56 0.69 0.79 0.72 0.83 0.85 0.70 0.52 0.42 0.45 0.52 0.58 0.59 0.49 0.49 0.63 0.58 0.63 0.68 0.57 0.46 0.37 0.35 0.36 0.41 0.47 0.49 0.52 0.44 0.31 0.25 0.23 0.24 0.26 0.27 0.23 0.22 0.23 0.28 0.26 0.28
0.48 0.50 0.53 0.56 0.67 0.75 0.77 0.84 0.91 0.82 0.61 0.46 0.46 0.49 0.56 0.46 0.48 0.62 0.72 0.70 0.73 0.69 0.53 0.41 0.27 0.23 0.29 0.31 0.35 0.43 0.42 0.43 0.31 0.25 0.21 0.16 0.29 0.32 0.31 0.27 0.20 0.33 0.32 0.31
0.45 0.49 0.52 0.63 0.72 0.80 0.81 0.84 0.96 0.79 0.78 0.66 0.53 0.48 0.46 0.58 0.54 0.66 0.68 0.54 0.56 0.60 0.44 0.32 0.26 0.24 0.35 0.32 0.33 0.31 0.32 0.31 0.26 0.27 0.24 0.28 0.37 0.36 0.35 0.20 0.27 0.40 0.38 0.33
0.45 0.50 0.56 0.62 0.75 0.77 0.84 0.87 1.01 0.92 0.78 0.64 0.62 0.59 0.54 0.62 0.58 0.66 0.63 0.49 0.48 0.46 0.32 0.30 0.31 0.30 0.35 0.33 0.36 0.33 0.29 0.29 0.29 0.33 0.29 0.21 0.37 0.32 0.24 0.38 0.41 0.36 0.35 0.38
0.52 0.52 0.64 0.75 0.82 0.91 0.98 0.86 1.03 1.22 0.91 0.78 0.77 0.83 0.84 0.80 0.77 0.81 0.64 0.48 0.44 0.46 0.39 0.38 0.41 0.34 0.36 0.32 0.24 0.38 0.29 0.33 0.31 0.30 0.31 0.39 0.36 0.33 0.39 0.40 0.37 0.41 0.42 0.43
0.66 0.67 0.78 0.86 0.95 0.98 1.00 0.99 1.04 1.12 0.74 0.72 0.75 0.76 0.84 0.93 0.88 1.00 0.59 0.66 0.60 0.54 0.63 0.48 0.43 0.33 0.39 0.26 0.29 0.37 0.37 0.42 0.32 0.31 0.31 0.36 0.39 0.42 0.48 0.49 0.47 0.47 0.50 0.53
0.80 0.83 0.87 0.95 1.00 1.02 0.98 0.87 0.97 1.02 0.73 0.54 0.63 0.86 0.71 0.81 0.96 1.03 0.89 0.73 0.70 0.68 0.65 0.46 0.36 0.33 0.45 0.34 0.37 0.36 0.40 0.39 0.31 0.31 0.36 0.39 0.46 0.52 0.51 0.52 0.54 0.52 0.56 0.55
0.86 0.90 0.95 0.98 1.00 1.00 1.05 1.07 1.10 1.04 0.71 0.53 0.62 0.73 0.74 0.71 0.72 0.77 0.80 0.73 0.65 0.59 0.50 0.42 0.40 0.46 0.43 0.45 0.40 0.34 0.41 0.37 0.31 0.32 0.45 0.45 0.50 0.53 0.53 0.48 0.47 0.50 0.52 0.50
0.93 0.92 0.94 0.99 1.02 1.02 0.96 0.77 0.86 0.97 0.91 0.63 0.55 0.77 0.70 0.70 0.67 0.67 0.67 0.71 0.70 0.67 0.57 0.52 0.54 0.58 0.50 0.35 0.32 0.46 0.47 0.48 0.51 0.49 0.54 0.54 0.50 0.50 0.51 0.49 0.52 0.55 0.54 0.54
0.93 0.95 0.97 1.04 1.03 1.02 0.84 0.73 0.83 0.94 0.94 0.68 0.56 0.56 0.69 0.74 0.68 0.67 0.68 0.74 0.74 0.67 0.56 0.51 0.52 0.51 0.57 0.44 0.37 0.48 0.49 0.51 0.52 0.51 0.53 0.47 0.49 0.46 0.54 0.55 0.55 0.55 0.54 0.55
0.96 0.98 1.03 1.04 1.00 0.99 0.89 0.93 0.91 0.88 0.74 0.77 0.54 0.55 0.58 0.74 0.61 0.58 0.71 0.63 0.64 0.61 0.55 0.57 0.56 0.58 0.58 0.44 0.49 0.51 0.52 0.52 0.49 0.49 0.52 0.52 0.56 0.55 0.54 0.54 0.52 0.50 0.50 0.52
0.98 0.98 1.03 0.99 0.93 0.83 0.83 0.93 0.93 0.91 0.69 0.55 0.58 0.48 0.41 0.70 0.64 0.66 0.67 0.70 0.52 0.66 0.56 0.56 0.60 0.52 0.43 0.49 0.50 0.50 0.52 0.49 0.47 0.52 0.53 0.53 0.51 0.51 0.50 0.50 0.50 0.49 0.50 0.50
0.97 0.91 0.80 0.74 0.86 0.92 0.90 0.80 0.65 0.64 0.69 0.59 0.51 0.67 0.50 0.61 0.61 0.58 0.59 0.63 0.55 0.46 0.54 0.65 0.53 0.47 0.53 0.55 0.52 0.52 0.52 0.53 0.54 0.47 0.46 0.48 0.47 0.47 0.49 0.50 0.52 0.51 0.49 0.47
0.85 0.75 0.72 0.88 0.91 0.81 0.67 0.52 0.52 0.55 0.51 0.54 0.56 0.57 0.53 0.71 0.56 0.54 0.62 0.51 0.53 0.39 0.45 0.44 0.38 0.36 0.42 0.49 0.50 0.54 0.55 0.56 0.54 0.53 0.52 0.52 0.53 0.52 0.51 0.50 0.49 0.44 0.40 0.34
0.81 0.77 0.84 0.83 0.70 0.61 0.50 0.46 0.51 0.51 0.46 0.53 0.50 0.52 0.56 0.60 0.66 0.53 0.56 0.42 0.43 0.31 0.45 0.36 0.30 0.37 0.46 0.49 0.51 0.52 0.53 0.52 0.51 0.53 0.53 0.54 0.53 0.52 0.49 0.45 0.39 0.37 0.35 0.31
0.80 0.68 0.61 0.58 0.56 0.46 0.41 0.36 0.42 0.43 0.50 0.52 0.52 0.47 0.51 0.54 0.53 0.45 0.42 0.35 0.34 0.45 0.35 0.32 0.37 0.46 0.50 0.52 0.51 0.49 0.51 0.51 0.52 0.53 0.53 0.52 0.49 0.46 0.41 0.37 0.38 0.36 0.31 0.28
0.60 0.54 0.46 0.49 0.45 0.46 0.46 0.47 0.48 0.53 0.54 0.53 0.51 0.47 0.47 0.50 0.44 0.45 0.35 0.42 0.42 0.33 0.29 0.31 0.42 0.47 0.49 0.50 0.49 0.50 0.50 0.51 0.50 0.49 0.46 0.42 0.40 0.39 0.38 0.35 0.33 0.28 0.25 0.22
0.57 0.56 0.42 0.43 0.49 0.51 0.53 0.56 0.54 0.56 0.59 0.56 0.52 0.51 0.51 0.46 0.43 0.45 0.42 0.37 0.34 0.36 0.35 0.41 0.46 0.48 0.50 0.51 0.52 0.52 0.50 0.48 0.47 0.44 0.42 0.42 0.41 0.37 0.33 0.30 0.27 0.24 0.21 0.19
0.60 0.55 0.49 0.52 0.50 0.51 0.54 0.54 0.54 0.61 0.60 0.62 0.57 0.48 0.44 0.43 0.45 0.40 0.37 0.35 0.32 0.36 0.43 0.49 0.52 0.53 0.54 0.55 0.53 0.48 0.47 0.49 0.48 0.44 0.42 0.40 0.37 0.33 0.29 0.25 0.21 0.21 0.20 0.19
0.53 0.49 0.57 0.55 0.54 0.51 0.53 0.56 0.57 0.66 0.59 0.49 0.50 0.42 0.39 0.46 0.38 0.36 0.41 0.36 0.42 0.47 0.50 0.55 0.56 0.54 0.54 0.52 0.51 0.49 0.48 0.47 0.45 0.43 0.39 0.35 0.32 0.27 0.22 0.20 0.20 0.20 0.20 0.20

GFSNW_prec_pwat_045.txt.gz
Precipitable_Water
0.51 0.52 0.48 0.59 0.54 0.50 0.49 0.49 0.33 0.73 0.87 0.45 0.43 0.34 0.38 0.49 0.39 0.53 0.52 0.47 0.37 0.30 0.30 0.31 0.29 0.26 0.29 0.35 0.37 0.38 0.42 0.36 0.34 0.39 0.49 0.47 0.35 0.33 0.36 0.26 0.21 0.25 0.21 0.17
0.52 0.53 0.51 0.57 0.58 0.52 0.45 0.42 0.45 0.79 0.72 0.31 0.28 0.40 0.41 0.41 0.37 0.49 0.50 0.44 0.40 0.35 0.34 0.32 0.34 0.30 0.41 0.42 0.39 0.40 0.42 0.32 0.29 0.33 0.44 0.45 0.34 0.35 0.29 0.31 0.33 0.25 0.21 0.20
0.55 0.56 0.54 0.58 0.60 0.55 0.52 0.48 0.36 0.57 0.57 0.43 0.32 0.33 0.33 0.29 0.40 0.52 0.53 0.50 0.43 0.37 0.34 0.36 0.35 0.33 0.42 0.45 0.43 0.46 0.40 0.34 0.27 0.20 0.24 0.24 0.32 0.35 0.35 0.30 0.22 0.21 0.23 0.25
0.55 0.57 0.54 0.64 0.62 0.57 0.58 0.51 0.39 0.45 0.37 0.35 0.35 0.37 0.35 0.28 0.28 0.50 0.57 0.49 0.41 0.36 0.32 0.31 0.35 0.42 0.42 0.46 0.45 0.42 0.38 0.25 0.31 0.29 0.25 0.27 0.31 0.32 0.35 0.36 0.33 0.29 0.30 0.30
0.54 0.56 0.59 0.64 0.63 0.60 0.52 0.48 0.40 0.52 0.48 0.50 0.42 0.35 0.32 0.27 0.28 0.44 0.48 0.48 0.43 0.38 0.34 0.33 0.35 0.41 0.39 0.36 0.41 0.35 0.36 0.24 0.23 0.21 0.26 0.28 0.26 0.30 0.29 0.33 0.31 0.29 0.29 0.29
0.54 0.55 0.60 0.64 0.64 0.63 0.52 0.62 0.60 0.53 0.50 0.48 0.45 0.31 0.33 0.29 0.36 0.46 0.54 0.49 0.46 0.35 0.36 0.39 0.46 0.44 0.45 0.42 0.36 0.28 0.25 0.21 0.20 0.17 0.25 0.26 0.22 0.21 0.22 0.21 0.24 0.26 0.22 0.30
0.50 0.52 0.61 0.65 0.67 0.61 0.57 0.60 0.65 0.51 0.37 0.47 0.37 0.38 0.37 0.33 0.34 0.42 0.52 0.48 0.47 0.48 0.60 0.54 0.54 0.52 0.51 0.51 0.49 0.46 0.33 0.30 0.31 0.24 0.29 0.18 0.23 0.28 0.26 0.25 0.27 0.29 0.29 0.31
0.53 0.61 0.66 0.65 0.67 0.62 0.57 0.67 0.69 0.63 0.41 0.44 0.44 0.39 0.35 0.37 0.44 0.52 0.55 0.55 0.63 0.68 0.55 0.48 0.46 0.47 0.46 0.47 0.57 0.54 0.50 0.43 0.36 0.29 0.25 0.26 0.26 0.28 0.25 0.23 0.24 0.30 0.27 0.29
0.62 0.65 0.69 0.65 0.62 0.59 0.60 0.68 0.76 0.69 0.55 0.40 0.44 0.39 0.39 0.36 0.46 0.54 0.60 0.75 0.75 0.70 0.56 0.48 0.37 0.33 0.35 0.31 0.34 0.44 0.46 0.48 0.38 0.33 0.22 0.16 0.27 0.32 0.33 0.30 0.22 0.35 0.33 0.32
0.62 0.64 0.65 0.62 0.60 0.58 0.62 0.65 0.74 0.68 0.50 0.64 0.55 0.36 0.35 0.48 0.54 0.54 0.62 0.65 0.67 0.78 0.51 0.46 0.38 0.33 0.34 0.25 0.24 0.28 0.32 0.36 0.30 0.28 0.22 0.25 0.35 0.37 0.36 0.22 0.26 0.40 0.40 0.37
0.61 0.58 0.56 0.57 0.56 0.56 0.59 0.62 0.81 0.68 0.64 0.71 0.70 0.57 0.47 0.51 0.63 0.51 0.62 0.59 0.74 0.70 0.47 0.42 0.38 0.30 0.30 0.33 0.37 0.36 0.31 0.27 0.27 0.32 0.25 0.19 0.39 0.36 0.28 0.37 0.41 0.40 0.39 0.38
0.51 0.52 0.53 0.50 0.51 0.54 0.62 0.58 0.71 0.88 0.71 0.71 0.92 0.84 0.77 0.68 0.71 0.66 0.68 0.57 0.60 0.73 0.53 0.52 0.41 0.30 0.32 0.31 0.28 0.41 0.27 0.31 0.28 0.31 0.30 0.39 0.38 0.40 0.44 0.44 0.41 0.43 0.42 0.44
0.48 0.47 0.46 0.46 0.50 0.53 0.62 0.68 0.77 0.82 0.67 0.74 0.77 0.75 0.90 0.87 0.81 0.85 0.60 0.64 0.79 0.69 0.63 0.50 0.42 0.28 0.36 0.28 0.30 0.32 0.39 0.45 0.36 0.34 0.38 0.38 0.43 0.46 0.46 0.46 0.45 0.48 0.47 0.46
0.46 0.45 0.47 0.52 0.56 0.67 0.73 0.75 0.87 0.84 0.73 0.55 0.68 0.98 0.94 1.00 1.01 0.82 0.79 0.77 0.85 0.70 0.61 0.46 0.38 0.29 0.44 0.32 0.34 0.35 0.40 0.41 0.37 0.35 0.40 0.43 0.46 0.49 0.49 0.50 0.51 0.49 0.49 0.49
0.48 0.48 0.52 0.58 0.67 0.74 0.86 0.91 0.92 0.96 0.73 0.66 0.78 0.88 0.91 0.98 0.92 0.87 0.79 0.95 0.76 0.65 0.51 0.43 0.38 0.44 0.41 0.41 0.39 0.36 0.43 0.37 0.29 0.28 0.40 0.40 0.43 0.49 0.52 0.50 0.50 0.49 0.48 0.48
0.50 0.54 0.64 0.71 0.83 0.89 0.86 0.71 0.89 1.03 0.99 0.82 0.63 0.87 0.80 0.84 0.97 0.87 0.75 0.90 0.78 0.67 0.54 0.51 0.53 0.57 0.44 0.34 0.32 0.44 0.47 0.49 0.48 0.41 0.49 0.49 0.53 0.55 0.56 0.51 0.50 0.51 0.52 0.53
0.62 0.70 0.81 0.87 0.93 0.90 0.74 0.74 0.98 1.11 1.08 0.78 0.62 0.66 0.85 0.89 0.81 0.81 0.78 0.87 0.77 0.67 0.61 0.56 0.53 0.54 0.52 0.41 0.33 0.46 0.50 0.52 0.53 0.56 0.54 0.48 0.50 0.47 0.52 0.52 0.53 0.53 0.53 0.52
0.83 0.86 0.90 0.94 0.96 0.93 0.83 0.99 1.00 1.02 0.94 0.74 0.54 0.54 0.62 0.78 0.61 0.57 0.76 0.69 0.71 0.67 0.60 0.63 0.55 0.58 0.54 0.38 0.48 0.52 0.54 0.53 0.52 0.54 0.56 0.52 0.52 0.53 0.53 0.54 0.51 0.48 0.47 0.48
0.93 0.96 0.96 0.94 0.89 0.83 0.84 0.97 0.93 0.86 0.71 0.56 0.59 0.49 0.47 0.74 0.63 0.63 0.62 0.64 0.49 0.65 0.53 0.53 0.54 0.47 0.39 0.47 0.52 0.56 0.55 0.52 0.52 0.54 0.53 0.53 0.52 0.52 0.52 0.50 0.49 0.47 0.47 0.48
1.01 0.95 0.85 0.74 0.84 0.94 0.92 0.78 0.64 0.63 0.61 0.59 0.56 0.64 0.51 0.64 0.58 0.53 0.54 0.56 0.47 0.40 0.48 0.59 0.50 0.44 0.55 0.59 0.61 0.62 0.59 0.58 0.56 0.49 0.48 0.50 0.49 0.49 0.49 0.49 0.49 0.48 0.47 0.44
0.91 0.79 0.73 0.88 0.97 0.81 0.66 0.55 0.52 0.53 0.48 0.52 0.59 0.65 0.55 0.67 0.51 0.49 0.57 0.50 0.51 0.39 0.46 0.47 0.44 0.43 0.53 0.62 0.62 0.63 0.61 0.59 0.57 0.57 0.56 0.54 0.52 0.49 0.49 0.49 0.49 0.46 0.41 0.37
0.84 0.83 0.91 0.88 0.74 0.61 0.49 0.46 0.51 0.48 0.43 0.53 0.53 0.59 0.64 0.65 0.68 0.55 0.55 0.45 0.48 0.36 0.53 0.44 0.34 0.43 0.52 0.52 0.53 0.55 0.58 0.57 0.57 0.57 0.54 0.52 0.52 0.51 0.49 0.47 0.42 0.40 0.38 0.37
0.84 0.72 0.65 0.61 0.57 0.44 0.38 0.35 0.39 0.39 0.50 0.54 0.54 0.52 0.60 0.64 0.61 0.53 0.51 0.44 0.40 0.51 0.38 0.33 0.38 0.45 0.49 0.51 0.52 0.54 0.57 0.56 0.53 0.52 0.52 0.51 0.51 0.52 0.45 0.43 0.43 0.39 0.34 0.31
0.61 0.53 0.44 0.45 0.43 0.43 0.45 0.45 0.46 0.52 0.54 0.56 0.58 0.54 0.50 0.54 0.47 0.47 0.37 0.42 0.43 0.33 0.29 0.30 0.41 0.47 0.52 0.53 0.54 0.54 0.50 0.50 0.51 0.50 0.52 0.50 0.43 0.42 0.43 0.41 0.39 0.34 0.29 0.27
0.53 0.51 0.41 0.43 0.50 0.53 0.54 0.56 0.55 0.59 0.63 0.58 0.53 0.53 0.52 0.46 0.42 0.43 0.40 0.35 0.31 0.33 0.33 0.41 0.48 0.53 0.54 0.51 0.50 0.49 0.49 0.51 0.50 0.46 0.44 0.44 0.42 0.40 0.38 0.36 0.33 0.30 0.25 0.22
0.56 0.52 0.47 0.52 0.50 0.50 0.52 0.54 0.54 0.63 0.62 0.61 0.57 0.47 0.42 0.41 0.43 0.38 0.36 0.34 0.32 0.38 0.46 0.52 0.54 0.52 0.51 0.51 0.52 0.51 0.52 0.52 0.49 0.48 0.47 0.45 0.41 0.37 0.34 0.32 0.29 0.24 0.21 0.20
0.51 0.48 0.55 0.53 0.52 0.50 0.52 0.56 0.57 0.66 0.58 0.48 0.49 0.41 0.39 0.47 0.40 0.38 0.44 0.40 0.44 0.49 0.49 0.52 0.54 0.53 0.53 0.55 0.53 0.52 0.52 0.50 0.46 0.45 0.45 0.42 0.39 0.35 0.30 0.24 0.22 0.23 0.22 0.22